Location: Central Falls
(41.8900°N, 71.3929°W)
Time: 15:00:22
(UTC+00:00)

S-56A Canister/Altair - Visible Passes

Search period start: 03 December 2023 00:00
Search period end: 13 December 2023 00:00
Orbit: 640 x 2489 km, 38.8° (Epoch: 02 December)

Date Brightness Start Highest point End Pass type
(mag) Time Alt. Az. Time Alt. Az. Time Alt. Az.
03 Dec 10.2 22:38:01 10° WSW 22:42:45 24° SSW 22:49:00 10° SSE visible
04 Dec 10.1 22:05:02 10° W 22:09:35 25° SSW 22:15:36 10° SSE visible
08 Dec 11.0 21:59:53 10° SW 22:00:41 10° SSW 22:01:30 10° SSW visible
12 Dec 11.3 11:32:02 10° S 11:34:56 12° SSE 11:37:30 10° SE visible
